TimeCST,TemperatureF,Dew PointF,Humidity,Sea Level PressureIn,VisibilityMPH,Wind Direction,Wind SpeedMPH,Gust SpeedMPH,PrecipitationIn,Events,Conditions,WindDirDegrees,DateUTC
12:13 AM,-0.4,-4.0,85,29.95,0.2,Calm,Calm,-,N/A,Fog,Light Freezing Fog,0,2013-02-24 06:13:00
12:33 AM,-0.4,-4.0,85,29.95,0.2,Calm,Calm,-,N/A,Snow,Light Snow,0,2013-02-24 06:33:00
12:53 AM,-0.4,-5.8,78,29.95,0.2,Calm,Calm,-,N/A,Fog,Light Freezing Fog,0,2013-02-24 06:53:00
1:14 AM,-2.2,-5.8,85,29.96,1.0,Calm,Calm,-,N/A,,Overcast,0,2013-02-24 07:14:00
1:33 AM,-0.4,-5.8,78,29.96,0.5,Calm,Calm,-,N/A,Fog,Light Freezing Fog,0,2013-02-24 07:33:00
1:53 AM,-0.4,-5.8,78,29.96,0.8,Calm,Calm,-,N/A,,Overcast,0,2013-02-24 07:53:00
2:13 AM,-2.2,-5.8,85,29.96,0.8,Calm,Calm,-,N/A,,Overcast,0,2013-02-24 08:13:00
2:33 AM,-2.2,-5.8,85,29.96,0.5,Calm,Calm,-,N/A,Fog,Light Freezing Fog,0,2013-02-24 08:33:00
2:53 AM,-2.2,-5.8,85,29.96,5.0,Calm,Calm,-,N/A,,Overcast,0,2013-02-24 08:53:00
3:13 AM,-2.2,-5.8,85,29.96,10.0,Calm,Calm,-,N/A,,Overcast,0,2013-02-24 09:13:00
3:34 AM,-0.4,-5.8,78,29.98,10.0,Calm,Calm,-,N/A,,Overcast,0,2013-02-24 09:34:00
3:53 AM,-2.2,-5.8,85,29.98,7.0,Calm,Calm,-,N/A,,Overcast,0,2013-02-24 09:53:00
4:13 AM,-2.2,-7.6,78,29.98,1.8,Calm,Calm,-,N/A,,Haze,0,2013-02-24 10:13:00
4:33 AM,-2.2,-7.6,78,29.98,0.5,Calm,Calm,-,N/A,Fog,Light Freezing Fog,0,2013-02-24 10:33:00
4:54 AM,-2.2,-7.6,78,29.98,0.2,Calm,Calm,-,N/A,Fog,Light Freezing Fog,0,2013-02-24 10:54:00
5:13 AM,-2.2,-5.8,85,29.99,3.0,Calm,Calm,-,N/A,,Overcast,0,2013-02-24 11:13:00
5:33 AM,-0.4,-5.8,78,29.99,10.0,Calm,Calm,-,N/A,,Mostly Cloudy,0,2013-02-24 11:33:00
6:13 AM,-0.4,-4.0,85,30.00,10.0,Calm,Calm,-,N/A,,Overcast,0,2013-02-24 12:13:00
6:33 AM,1.4,-2.2,85,30.00,10.0,Calm,Calm,-,N/A,,Mostly Cloudy,0,2013-02-24 12:33:00
6:53 AM,1.4,-2.2,85,30.00,10.0,Calm,Calm,-,N/A,,Mostly Cloudy,0,2013-02-24 12:53:00
7:13 AM,1.4,-2.2,85,30.01,10.0,Calm,Calm,-,N/A,,Overcast,0,2013-02-24 13:13:00
7:34 AM,1.4,-2.2,85,30.01,10.0,Calm,Calm,-,N/A,,Mostly Cloudy,0,2013-02-24 13:34:00
7:54 AM,1.4,-2.2,85,30.02,10.0,Calm,Calm,-,N/A,,Scattered Clouds,0,2013-02-24 13:54:00
8:13 AM,1.4,-2.2,85,30.03,10.0,Calm,Calm,-,N/A,,Scattered Clouds,0,2013-02-24 14:13:00
8:33 AM,3.2,-0.4,85,30.03,10.0,Calm,Calm,-,N/A,,Scattered Clouds,0,2013-02-24 14:33:00
8:53 AM,3.2,-0.4,85,30.04,10.0,Calm,Calm,-,N/A,Snow,Light Snow,0,2013-02-24 14:53:00
9:13 AM,5.0,1.4,85,30.04,7.0,Calm,Calm,-,N/A,,Overcast,0,2013-02-24 15:13:00
9:33 AM,8.6,3.2,79,30.05,0.5,Calm,Calm,-,N/A,Snow,Light Snow,0,2013-02-24 15:33:00
9:53 AM,8.6,3.2,79,30.05,7.0,Calm,Calm,-,N/A,Snow,Light Snow,0,2013-02-24 15:53:00
10:13 AM,10.4,6.8,85,30.06,4.0,SSE,3.5,-,N/A,Snow,Light Snow,160,2013-02-24 16:13:00
10:33 AM,10.4,6.8,85,30.06,10.0,Calm,Calm,-,N/A,,Scattered Clouds,0,2013-02-24 16:33:00
10:53 AM,12.2,8.6,85,30.06,5.0,Calm,Calm,-,N/A,Snow,Light Snow,0,2013-02-24 16:53:00
11:13 AM,15.8,10.4,79,30.06,10.0,Calm,Calm,-,N/A,,Clear,0,2013-02-24 17:13:00
11:34 AM,15.8,10.4,79,30.06,10.0,Calm,Calm,-,N/A,,Clear,0,2013-02-24 17:34:00
11:53 AM,17.6,10.4,73,30.06,10.0,Calm,Calm,-,N/A,,Clear,0,2013-02-24 17:53:00
12:13 PM,17.6,10.4,73,30.07,10.0,NW,3.5,-,N/A,,Clear,320,2013-02-24 18:13:00
12:33 PM,17.6,10.4,73,30.07,10.0,Calm,Calm,-,N/A,,Clear,0,2013-02-24 18:33:00
12:54 PM,19.4,10.4,68,30.06,10.0,Calm,Calm,-,N/A,,Clear,0,2013-02-24 18:54:00
1:13 PM,19.4,12.2,74,30.06,10.0,Calm,Calm,-,N/A,,Clear,0,2013-02-24 19:13:00
1:33 PM,21.2,12.2,68,30.06,10.0,Calm,Calm,-,N/A,,Clear,0,2013-02-24 19:33:00
1:53 PM,21.2,12.2,68,30.05,10.0,ESE,4.6,-,N/A,,Clear,110,2013-02-24 19:53:00
2:13 PM,23.0,12.2,63,30.05,10.0,ESE,4.6,-,N/A,,Clear,110,2013-02-24 20:13:00
2:34 PM,21.2,12.2,68,30.05,10.0,SE,4.6,-,N/A,,Clear,130,2013-02-24 20:34:00
2:53 PM,21.2,12.2,68,30.05,10.0,ESE,3.5,-,N/A,,Clear,120,2013-02-24 20:53:00
3:13 PM,24.8,12.2,59,30.04,10.0,ESE,4.6,-,N/A,,Clear,110,2013-02-24 21:13:00
3:33 PM,23.0,14.0,68,30.04,10.0,ESE,3.5,-,N/A,,Clear,110,2013-02-24 21:33:00
3:53 PM,21.2,12.2,68,30.03,10.0,Calm,Calm,-,N/A,,Clear,0,2013-02-24 21:53:00
4:13 PM,19.4,12.2,74,30.04,10.0,East,3.5,-,N/A,,Clear,100,2013-02-24 22:13:00
4:33 PM,19.4,14.0,80,30.03,10.0,East,3.5,-,N/A,,Clear,90,2013-02-24 22:33:00
4:53 PM,21.2,14.0,74,30.04,10.0,ESE,3.5,-,N/A,,Clear,120,2013-02-24 22:53:00
5:13 PM,21.2,14.0,74,30.04,10.0,ESE,3.5,-,N/A,,Clear,110,2013-02-24 23:13:00
5:34 PM,19.4,14.0,80,30.04,10.0,ESE,5.8,-,N/A,,Clear,120,2013-02-24 23:34:00
5:54 PM,19.4,14.0,80,30.05,10.0,Calm,Calm,-,N/A,,Clear,0,2013-02-24 23:54:00
6:14 PM,19.4,14.0,80,30.05,10.0,Calm,Calm,-,N/A,,Clear,0,2013-02-25 00:14:00
6:34 PM,17.6,12.2,79,30.06,10.0,Calm,Calm,-,N/A,,Clear,0,2013-02-25 00:34:00
6:53 PM,17.6,12.2,79,30.06,10.0,Calm,Calm,-,N/A,,Clear,0,2013-02-25 00:53:00
7:13 PM,15.8,12.2,86,30.06,10.0,Calm,Calm,-,N/A,,Clear,0,2013-02-25 01:13:00
7:33 PM,15.8,12.2,86,30.07,10.0,Calm,Calm,-,N/A,,Clear,0,2013-02-25 01:33:00
7:53 PM,14.0,10.4,86,30.07,10.0,Calm,Calm,-,N/A,,Clear,0,2013-02-25 01:53:00
8:13 PM,15.8,10.4,79,30.07,7.0,SSE,4.6,-,N/A,,Clear,160,2013-02-25 02:13:00
8:33 PM,15.8,10.4,79,30.07,7.0,Calm,Calm,-,N/A,,Clear,0,2013-02-25 02:33:00
8:53 PM,12.2,10.4,92,30.07,7.0,Calm,Calm,-,N/A,,Clear,0,2013-02-25 02:53:00
9:13 PM,10.4,6.8,85,30.07,7.0,Calm,Calm,-,N/A,,Clear,0,2013-02-25 03:13:00
9:33 PM,8.6,6.8,92,30.08,5.0,Calm,Calm,-,N/A,,Clear,0,2013-02-25 03:33:00
9:53 PM,10.4,6.8,85,30.08,4.0,Calm,Calm,-,N/A,,Clear,0,2013-02-25 03:53:00
10:13 PM,10.4,8.6,92,30.07,5.0,SSE,5.8,-,N/A,,Clear,150,2013-02-25 04:13:00
10:33 PM,10.4,8.6,92,30.08,5.0,Calm,Calm,-,N/A,,Clear,0,2013-02-25 04:33:00
10:53 PM,10.4,8.6,92,30.08,5.0,SSE,3.5,-,N/A,,Clear,160,2013-02-25 04:53:00
11:13 PM,8.6,5.0,85,30.08,5.0,SSE,3.5,-,N/A,,Clear,150,2013-02-25 05:13:00
11:33 PM,10.4,8.6,92,30.08,7.0,SE,4.6,-,N/A,,Clear,140,2013-02-25 05:33:00
11:53 PM,10.4,8.6,92,30.07,7.0,SSE,3.5,-,N/A,,Clear,150,2013-02-25 05:53:00